Regional Weather Roundup
Issued by NWS Sioux Falls, SD

Home | Current Version | Previous Version | Text Only | Print | Product List | Glossary On
Versions: 1 2 3 4 5 6 7 8 9 10 11 12 13 14 15 16 17 18 19 20 21 22 23 24 25 26 27 28 29 30 31 32 33 34 35 36 37 38 39 40 41 42 43 44 45 46 47 48 49 50
000
ASUS43 KFSD 020210
RWRFSD

WEATHER ROUNDUP FOR SE SOUTH DAKOTA/SW MINNESOTA/NW IOWA
NATIONAL WEATHER SERVICE SIOUX FALLS SD
900 PM CDT SAT AUG 01 2015

NOTE: "FAIR" INDICATES FEW OR NO CLOUDS BELOW 12,000 FEET WITH NO
SIGNIFICANT WEATHER AND OR OBSTRUCTIONS TO VISIBILITY.


SDZ038>040-050-052>070-020300-
SOUTHEAST SOUTH DAKOTA

CITY           SKY/WX    TMP DP  RH WIND       PRES   REMARKS
BROOKINGS      CLOUDY    75  63  64 S8        29.82F
CHAMBERLAIN    CLEAR     79  62  55 SW8       29.83S
HURON          CLEAR     83  64  52 SW9       29.77S
MADISON        FAIR      77  63  61 SW10      29.83F
MITCHELL       PTCLDY    82  66  58 SW7       29.80F
SIOUX FALLS    PTCLDY    79  64  60 SW10      29.84S
WINNER         FAIR      82  58  43 SW12      29.86F
YANKTON        CLEAR     81  63  54 S7        29.84S
$$

MNZ071-072-080-081-089-090-097-098-020300-
SOUTHWEST MINNESOTA

CITY           SKY/WX    TMP DP  RH WIND       PRES   REMARKS
FAIRMONT       CLEAR     75  63  64 S7        29.84F
JACKSON        CLEAR     73  64  73 S7        29.86F
LUVERNE        PTCLDY    72  66  83 SW6       29.85S
MARSHALL       PTCLDY    77  63  61 S6        29.80F
MONTEVIDEO     CLEAR     79  63  57 SW8       29.78S
PIPESTONE      MOCLDY    73  64  73 S5        29.84F
REDWOOD FALLS  CLEAR     77  68  73 S7        29.78F
TRACY          PTCLDY    77  64  65 S7        29.81F
WINDOM         CLEAR     75  63  64 S3        29.84S
WORTHINGTON    PTCLDY    73  63  68 S8        29.85S
$$

IAZ001>003-012>014-020>022-031-032-NEZ013-014-SDZ071-020300-
NORTHWEST IOWA

CITY           SKY/WX    TMP DP  RH WIND       PRES   REMARKS
CHEROKEE       CLEAR     72  69  91 S8        29.88S
DENISON        CLEAR     73  70  88 S6        29.89S
ESTHERVILLE    CLEAR     72  65  78 S7        29.86S
LE MARS        CLEAR     73  70  88 S7        29.88S
ORANGE CITY    CLEAR     72  68  88 S7        29.88S
SHELDON        CLEAR     73  68  83 S9G15     29.86R
SIOUX CITY     CLEAR     74  66  76 S3        29.88S
SPENCER        CLEAR     74  66  76 S9        29.87S
STORM LAKE     CLEAR     72  70  94 S8        29.90S
$$

ABBREVIATIONS USED IN REMARKS
   TC - TEMPERATURE IN CELSIUS
  WCI - WIND CHILL INDEX
   HX - HEAT INDEX
  VSB - VISIBILITY




USA.gov is the U.S. government's official web portal to all federal, state and local government web resources and services.